Погода в Солнцевке

Россия / Омская область     54°59′17″N   71°17′24″E
темп.,
°C
ветер,
м/с
пор.,
м/с
влажн.,
%
обл.,
%
осадки,
мм/ч
давл.,
гПа
погр.,
м
9 марта, вт
вт900:00−13юз6148699 0.0 1016444
03:00−12юз71491100 0.1 1015565
06:00−12юз71491100 0.2 1015519
09:00−10юз71391100 0.1 1014511
12:00−8юз81391100 0.1 1014591
15:00−5юз91585100 0.0 1013841
18:00−6юз7158295 0.0 1013730
21:00−7юз6158689 0.0 1013633
10 марта, ср
ср1000:00−8зюз5129194 0.0 1013380
03:00−10юз4795100 0.0 1013169
06:00−10юз2396100 0.1 101243
09:00−9вюв2396100 0.3 1011107
12:00−7вюв3595100 1.4 1008318
15:00−6в3595100 1.5 1005370
18:00−6в1295100 2.3 1003204
21:00−8зюз2296100 0.3 100323
11 марта, чт
чт1100:00−9юз3596100 0.6 100391
03:00−8ююз5119586 0.2 1003373
06:00−11юз7149193 0.4 1004502
09:00−13юз71491100 0.0 1005508
12:00−12юз6118799 0.1 1006591
15:00−9ююз7118193 0.0 1005950
18:00−10юз5118796 0.1 1005748
21:00−15юз5129099 0.1 1006524
12 марта, пт
пт1200:00−16юз6129398 0.1 1007462
03:00−16зюз61193100 0.1 1008398
06:00−19з61295100 0.2 1011418
09:00−23з5119459 0.0 1015324
12:00−20з589256 0.0 1016468
15:00−18зюз6889100 0.0 1017639
18:00−18з5991100 0.1 1018637
21:00−21з51196100 0.0 1021356
13 марта, сб
сб1300:00−23з5109597 0.1 1023205
03:00−26зюз47960 0.0 1024107
06:00−26юз499910 0.0 1025152
09:00−22юз51097100 0.0 1025244
12:00−17зюз6994100 0.0 1025324
15:00−13зюз7119197 0.0 1027460
18:00−12зюз5119299 0.1 1027479
21:00−15зюз41096100 0.0 1028236